www.pogodaiklimat.ru

Погода и климат >> Архив погоды >> Бенин >> Kandi


ПОГОДА в Kandi

  • Прогноз погоды в Kandi
  • Монитор погоды в Kandi
  • Климат города

АРХИВ ПОГОДЫ в Kandi

Время (UTC), дата Ветер
(напр.,м/с)
 
Видим.   Явления Облачность Т
(С)
Тd
(С)
f
(%)
Тe
(С)
Тes
(С)
Комфортность P
(гПа)
Po
(гПа)
Тmin
(С)
Tmax
(С)
R
(мм)
R24
(мм)
S
(см)
18 20.06 Ю 3 10 км 8/3 600 м
[Cu Sc Ac trans Ci sp]
+27.1 +22.2 75 +35 +35 очень
душно
1010.6 977.5 +29.4 0.3
21 20.06 штиль 0 10 км 6/0
[Ci sp]
+25.0 +22.5 86 +33 +33 очень
душно
1014.7 981.5
00 21.06 ЮЗ 1 10 км 6/0
[Ci sp]
+24.0 +21.8 88 +31 +31 очень
душно
1014.4 981.3
03 21.06 З 1 10 км 6/0
[Ci sp]
+23.1 +21.6 91 +31 +31 очень
душно
1013.0 980.0
06 21.06 штиль 0 10 км 6/0
[Ac trans Ci sp]
+22.8 +21.6 93 +30 +31 очень
душно
1013.8 980.7 +22.5 0.3
09 21.06 СЗ 2 10 км 6/1 900 м
[Cu hum Ci sp]
+26.8 +22.6 78 +35 +45 очень
душно
1014.4 981.4
12 21.06 СЗ 3 10 км 9/5 600 м
[Cu Sc Ci sp]
+30.0 +23.0 66 +40 +47 очень
душно
1012.6 979.7
15 21.06 СЗ 2 10 км 9/5 600 м
[Cu Sc Ci sp]
+32.3 +22.6 57 +42 +46 опасность
перегрева
1010.4 977.7
18 21.06 СЗ 1 10 км 9/3 600 м
[Cb cap Ac As Ci sp]
+30.9 +22.9 62 +41 +41 опасность
перегрева
1010.4 977.6 +32.4
21 21.06 штиль 0 10 км 8/3 600 м
[Cb cap Ci sp]
+27.6 +23.9 80 +38 +38 очень
душно
1013.7 980.8
00 22.06 штиль 0 10 км зарница 8/3 600 м
[Cb cap Ci sp]
+26.9 +24.4 86 +38 +38 очень
душно
1013.9 981.1
03 22.06 В 2 3000 м гроза, ливневой дождь 9/4 600 м
[Cb cap Ac As]
+21.5 +20.7 95 +27 +27 душно 1014.2 981.3
06 22.06 штиль 0 5000 м в посл. час дождь {гроза} 9/0
[Ac As]
+22.4 +21.1 92 +29 +29 очень
душно
1009.1 976.3 +20.8 8
09 22.06 СЗ 2 10 км 9/0
[Ac As Ci sp]
+25.0 +21.6 81 +32 +36 очень
душно
1011.7 978.8
12 22.06 СЗ 1 10 км 9/0
[Ac As Ci sp]
+29.5 +22.1 64 +38 +52 опасность
солнечного
удара
1011.0 978.3
18 22.06 штиль 0 10 км 8/1 900 м
[Cu hum Ci sp]
+30.3 +24.9 73 +43 +43 опасность
перегрева
1009.5 976.7 +32.0
00 23.06 ЮЗ 2 10 км 9/0
[Ac As Ci sp]
+27.7 +23.9 80 +38 +38 очень
душно
1009.6 977.0
06 23.06 штиль 0 10 км 9/0
[Ac As Ci sp]
+26.5 +24.4 88 +37 +37 очень
душно
1009.5 976.9 +26.2
12 23.06 ЮЗ 2 10 км 9/3 900 м
[Cu hum Ci sp]
+32.9 +24.4 61 +45 +58 опасность
перегрева
1009.0 976.6
18 23.06 Ю 2 10 км 9/6 600 м
[Cb cap Ci sp]
+32.9 +24.7 62 +46 +46 опасность
перегрева
1006.7 974.3 +34.6
00 24.06 Ю 1 10 км гроза, ливневой дождь 9/1 600 м
[Cb cap Ac As]
+23.5 +22.6 95 +31 +31 очень
душно
1011.6 978.9 4
06 24.06 штиль 0 10 км {гроза, дождь} 9/0
[Ac As Ci sp]
+23.1 +22.7 98 +32 +32 очень
душно
1009.8 977.1 +22.8 4
12 24.06 ЮЗ 1 10 км 9/6 600 м
[Cb cap Ci sp]
+29.4 +23.0 68 +39 +47 очень
душно
1011.0 978.1
18 24.06 Ю 1 10 км {дождь} 9/3 600 м
[Cb cap Ac trans Ci sp]
+28.7 +22.3 68 +37 +37 очень
душно
1008.9 976.0 +31.5 0.0
21 24.06 Ю 1 10 км 9/3 600 м
[Cb cap Ci sp]
+26.6 +23.7 84 +36 +36 очень
душно
1011.5 978.7
00 25.06 Ю 2 10 км 9/0
[Ac As Ci sp]
+24.8 +22.9 89 +33 +33 очень
душно
1012.5 979.6
03 25.06 штиль 0 10 км 9/0
[Ac As Ci sp]
+24.5 +22.9 91 +32 +32 очень
душно
1011.5 978.7
06 25.06 З 1 10 км 9/0
[Ac As Ci sp]
+24.2 +22.6 91 +32 +32 очень
душно
1012.5 979.6 +24.0 0.0
09 25.06 ЮЗ 1 10 км 9/1 600 м
[Cu Sc Ac trans Ci sp]
+27.6 +23.0 76 +37 +44 очень
душно
1014.2 981.3
12 25.06 З 1 10 км 9/8 600 м
[Cu Sc Ac trans Ci sp]
+30.4 +22.8 64 +40 +44 очень
душно
1012.8 980.0
15 25.06 ЮЗ 4 10 км гроза без осадков {дождь} 9/6 600 м
[Cb cap Ac cuf Ci sp]
+26.0 +23.9 88 +36 +37 очень
душно
1010.6 977.7
18 25.06 С 1 10 км слабый дождь {гроза} 9/1 600 м
[Cb cap Ac As Ci sp]
+24.7 +23.0 90 +33 +33 очень
душно
1011.4 978.3 +32.1 3
21 25.06 штиль 0 10 км зарница {дождь} 9/1 600 м
[Cb cap Ac As]
+24.8 +23.8 94 +34 +34 очень
душно
1013.2 980.2
00 26.06 штиль 0 10 км зарница {дождь} 9/1 600 м
[Cb cap Ac As]
+24.8 +23.5 92 +33 +33 очень
душно
1012.7 979.9 0.1
03 26.06 штиль 0 8000 м гроза, ливневой дождь 9/1 600 м
[Cb cap Ac As]
+21.5 +21.2 98 +27 +27 душно 1011.8 978.7
06 26.06 ЮВ 1 8000 м слабый дождь {гроза} 9/4 600 м
[Sc diur, vesp Ac As]
+21.7 +21.4 98 +28 +28 душно 1013.1 979.8 +20.2 27
09 26.06 С 1 10 км {дождь} 9/1 600 м
[Cu Sc Ac trans Ci sp]
+25.9 +23.2 85 +35 +42 очень
душно
1012.8 979.8
12 26.06 штиль 0 10 км {дождь} 9/1 900 м
[Cu hum Ac As Ci sp]
+28.0 +23.7 77 +38 +53 опасность
солнечного
удара
1011.9 979.0 0.0
15 26.06 В 2 10 км 9/1 900 м
[Cu hum Ac trans Ci sp]
+31.8 +24.7 66 +45 +50 опасность
перегрева
1010.0 977.2
18 26.06 В 1 10 км 8/1 900 м
[Cb cap Ci sp]
+30.3 +24.1 69 +42 +42 опасность
перегрева
1009.9 977.0 +31.8 0.0
21 26.06 ЮВ 1 10 км зарница 9/1 900 м
[Cb cap Ac As Ci sp]
+27.2 +25.0 88 +39 +39 очень
душно
1012.1 979.2
00 27.06 ЮЗ 1 10 км 9/0
[Ac As]
+26.2 +24.2 89 +36 +36 очень
душно
1011.9 979.0
03 27.06 штиль 0 10 км 9/0
[Ac As Ci sp]
+25.0 +23.3 90 +33 +33 очень
душно
1010.9 978.2
06 27.06 Ю 1 10 км 8/0
[Ac trans Ci sp]
+24.3 +23.1 93 +32 +33 очень
душно
1012.0 979.2 +23.9 0.0
09 27.06 ЮЗ 1 10 км 9/0
[Cc]
+28.6 +23.5 74 +39 +51 опасность
солнечного
удара
1013.5 980.7
12 27.06 СЗ 1 10 км 9/0
[Ac trans Cs]
+31.6 +24.3 65 +44 +63 опасность
перегрева
1011.4 978.8
15 27.06 СЗ 1 10 км 9/3 600 м
[Cu Sc Cs]
+33.2 +23.9 58 +45 +52 опасность
перегрева
1010.0 977.4

 

Местоположение метеостанции Kandi (Бенин): широта 11.13 долгота 2.93 высота над уровнем моря 292 м.

В архиве по умолчанию представлена погода в Kandi за последнюю неделю. Архивные данные за месяц целиком и за предыдущие месяцы, начиная с января 2011 года, Вы можете получить, выбрав интересующий диапазон дат из раскрывающегося списка и нажав кнопку "Ввод!".

Внимание! Время в таблицах - всемирное. Для получения местного времени необходимо прибавить поправку, которая в Kandi равна 1 ч.

Смотрите также архив погоды в соседних городах и на ближайших метеорологических станциях:

Погода в Gaya (Нигер) (101 км)
Погода в Natitingou (Бенин) (192 км)
Погода в Yelwa (Нигерия) (201 км)
Погода в Parakou (Бенин) (201 км)
Погода в Dosso (Нигер) (211 км)
Погода в Niamtougou (Того) (251 км)
Погода в Kara (Того) (261 км)
Погода в Niamey-Aero (Нигер) (274 км)
Погода в Mango (Того) (282 км)
Погода в Dapaon (Того) (283 км)

Пояснения к столбцам:

Ветер - указаны скорость ветра в м/с - средняя за 10 мин, порывы в срок и между сроками (в фигурных скобках) и направление, откуда дует ветер: С - северный, СВ - северо-восточный, В - восточный, ЮВ - юго-восточный, Ю - южный, ЮЗ - юго-западный, З - западный, СЗ - северо-западный.
Видимость - горизонтальная дальность видимости в метрах или километрах. При видимости от 1 до 10 км при отсутствии осадков обычно наблюдается дымка, при ухудшении видимости до 1 км и менее - туман. В сухую погоду видимость может ухудшаться дымом, пылью или мглою.
Явления - указаны атмосферные явления, наблюдавшиеся в срок или в последний час перед сроком; фигурными скобками обозначены явления, наблюдавшиеся между сроками (за 1-3 часа до срока); квадратными скобками обозначены град или гололедные отложения с указанием их диаметра в мм.
Облачность - указаны через наклонную черту общая и нижняя облачность в баллах и высота нижней границы облаков в метрах; квадратными скобками обозначены формы облаков: Ci - перистые, Cs - перисто-слоистые, Cc - перисто-кучевые, Ac - высококучевые, As - высокослоистые, Sc - слоисто-кучевые, Ns - слоисто-дождевые, Cu - кучевые, Cb - кучево-дождевые. Подробнее классификацию облаков см. в Атласе облаков (PDF).
T - Температура воздуха - температура, измеренная на высоте 2 м над землей.
Td - Температура точки росы - температура, при понижении до которой содержащийся в воздухе водяной пар достигнет насыщения.
f - Относительная влажность воздуха - влажноcть воздуха, измеренная на высоте 2 м над землей.
Te - Эффективная температура - температура, которую ощущает одетый по сезону человек в тени. Характеристика душности погоды. При расчете учитывается влияние влажности воздуха и скорости ветра на теплоощущения человека.
Tes - Эффективная температура на солнце - температура, которую ощущает человек, с поправкой на солнечный нагрев. Характеристика знойности погоды. Зависит от высоты солнца над горизонтом, облачности и скорости ветра. Ночью, в пасмурную погоду, а также при ветре 12 м/с и более поправка равна нулю.
P - Атмосферное давление - приведенное к уровню моря атмосферное давление.
Po - Атмосферное давление - измеренное на уровне метеостанции атмосферное давление.
Tmin - Минимальная температура - минимум температуры воздуха на высоте 2 м над землей.
Tmax - Максимальная температура - максимум температуры воздуха на высоте 2 м над землей.
R - Количество осадков - Количество выпавших осадков за период времени, мм. При наведении курсора мыши на число - период времени, за который выпало указанное количество осадков.
R24 - Количество осадков - Количество выпавших осадков за 24 часа, мм.
S - Снежный покров - Высота снежного покрова, см. При наведении курсора мыши на число - состояние снежного покрова и степень покрытия местности в баллах.